JAGSAT 1 (53771 NORAD) Tracking and Keplerian Element Data

This shows tracking and keplerian element data for the satellite.

Feedback or suggestion? Click here.




ElementValue
Catalog53771
NameJAGSAT 1
Epoch Orbit2033
Epoch Day14.20844497
Epoch Year2023
RAAN356.8961
Inclination51.6279
Eccentricity0.0007749
Argument of Perigee85.6991
Mean Anonmoly274.4902
Mean Motion15.94735003
Decay Rate0.0103052
L11 53771U 98067UJ 23014.20844497 .01030520 49150-3 26356-2 0 9998
L22 53771 51.6279 356.8961 0007749 85.6991 274.4902 15.94735003 20331



Live tracking and technical data element details for JAGSAT 1 (NORAD 53771). JAGSAT 1 can be tracked NOW for your location showing map with azimuth and elevation plus other details from your city location.







IsCatalogInMostPopularTable: catalog: 53771, numindb: 48
Update: records affected: 1



GetName: 53771 JAGSAT 1

Hit Count: updated at: Thu, 23 Jan 2025 16:49:07 GMT